This demonstration page uses our WeatherBlox Daily Observations layout. Learn more.

Left ArrowRight Arrow

Hourly Observations for July 5, 2017

Temp ( °F °C ) Dew Point ( °F °C ) Humidity (%) Winds ( mph kmh ) Pressure ( in mb ) Visibility ( mi km ) Precip ( " mm )
12:53 am 00:53 Clear 73 22.8 48 8.9 41 41 N 3 6 29.89 1012 10 16 0.00 0.00
1:53 am 01:53 Clear 71 21.7 47 8.3 42 42 Calm 29.90 1012 10 16 0.00 0.00
2:53 am 02:53 Clear 68 20 48 8.9 49 49 Calm 29.91 1013 10 16 0.00 0.00
3:53 am 03:53 Clear 66 18.9 50 10 56 56 Calm 29.91 1013 10 16 0.00 0.00
4:53 am 04:53 Clear 65 18.3 51 10.6 61 61 Calm 29.92 1013 10 16 0.00 0.00
5:53 am 05:53 Sunny 62 16.7 51 10.6 67 67 Calm 29.93 1014 10 16 0.00 0.00
6:53 am 06:53 Sunny 69 20.6 53 11.7 57 57 NW 3 6 29.94 1014 10 16 0.00 0.00
7:53 am 07:53 Sunny 75 23.9 53 11.7 46 46 N 3 6 29.95 1014 10 16 0.00 0.00
8:53 am 08:53 Sunny 79 26.1 53 11.7 41 41 WSW 5 7 29.96 1014 10 16 0.00 0.00
9:53 am 09:53 Sunny 83 28.3 49 9.4 31 31 VRB 3 6 29.95 1014 8 13 0.00 0.00
10:53 am 10:53 Sunny 88 31.1 48 8.9 25 25 VRB 7 11 29.95 1014 10 16 0.00 0.00
11:53 am 11:53 Sunny 89 31.7 43 6.1 20 20 VRB 6 9 29.95 1014 10 16 0.00 0.00
12:53 pm 12:53 Sunny 92 33.3 43 6.1 18 18 SW 6 9 29.95 1014 10 16 0.00 0.00
1:53 pm 13:53 Sunny 95 35 44 6.7 17 17 SW 8 13 29.94 1014 10 16 0.00 0.00
2:53 pm 14:53 Sunny 98 36.7 38 3.3 12 12 SSW 13 20 29.93 1014 10 16 0.00 0.00
3:53 pm 15:53 Sunny 98 36.7 36 2.2 11 11 S 10 17 29.92 1013 10 16 0.00 0.00
4:53 pm 16:53 Sunny 99 37.2 36 2.2 11 11 SSW 9 15 29.91 1013 10 16 0.00 0.00
5:53 pm 17:53 Sunny 98 36.7 39 3.9 13 13 SSW 7 11 29.89 1012 10 16 0.00 0.00
6:53 pm 18:53 Sunny 97 36.1 38 3.3 13 13 S 9 15 29.89 1012 10 16 0.00 0.00
7:53 pm 19:53 Sunny 95 35 40 4.4 15 15 SSW 7 11 29.89 1012 10 16 0.00 0.00
8:53 pm 20:53 Clear 90 32.2 48 8.9 24 24 SSW 9 15 29.90 1013 10 16 0.00 0.00
9:53 pm 21:53 Clear 83 28.3 48 8.9 30 30 ENE 5 7 29.93 1014 10 16 0.00 0.00
10:53 pm 22:53 Clear 81 27.2 47 8.3 30 30 Calm 29.95 1014 10 16 0.00 0.00
11:53 pm 23:53 Clear 76 24.4 49 9.4 39 39 N 3 6 29.96 1015 10 16 0.00 0.00

Powered by AerisWeather